Location: *
(39.6167°S, 171.5333°W)
Time: 06:05:00
(UTC+00:00)

YAOGAN 1 - Pass Details

Date: 13 May 2021
Orbit: 618 x 620 km, 97.9° (Epoch: 16 June)

Event Time Altitude Azimuth Distance (km) Brightness Sun altitude
Rises 17:46:04 0° 29° (NNE) 2,889 6.8 -7.4°
Reaches altitude 10° 17:48:18 10° 35° (NE) 1,991 6.1 -7.0°
Maximum altitude 17:52:26 45° 108° (ESE) 862 3.8 -6.2°
Drops below altitude 10° 17:56:37 10° 179° (S) 2,019 5.0 -5.4°
Sets 17:58:54 0° 185° (S) 2,934 5.8 -5.0°
